| time (UTC) | temp C | wind direction | speed KPH | gust KPH | rain 1hr cm | rain 24hr cm | rain mn cm | humidity % | barometer mb |
| 20260506185340 | 25 | 85 | 0.0 | 0.0 | 0.00 | 0.13 | 0.13 | 74 | 1010.1 |
| 20260506184837 | 25 | 81 | 0.0 | 1.6 | 0.00 | 0.13 | 0.13 | 75 | 1010.0 |
| 20260506184334 | 23 | 104 | 0.0 | 0.0 | 0.00 | 0.13 | 0.13 | 76 | 1009.5 |
| 20260506183832 | 23 | 123 | 0.0 | 0.0 | 0.00 | 0.13 | 0.13 | 77 | 1009.5 |
| 20260506183327 | 23 | 156 | 0.0 | 1.6 | 0.00 | 0.13 | 0.13 | 76 | 1010.0 |
| 20260506182825 | 23 | 100 | 1.6 | 4.8 | 0.00 | 0.13 | 0.13 | 76 | 1010.0 |
| 20260506182321 | 22 | 108 | 0.0 | 0.0 | 0.00 | 0.13 | 0.13 | 78 | 1010.1 |
| 20260506181819 | 23 | 352 | 1.6 | 3.2 | 0.00 | 0.13 | 0.13 | 77 | 1010.0 |
| 20260506181317 | 23 | 113 | 0.0 | 0.0 | 0.00 | 0.13 | 0.13 | 76 | 1009.9 |
| 20260506180814 | 23 | 131 | 0.0 | 3.2 | 0.00 | 0.13 | 0.13 | 77 | 1010.0 |
| 20260506180310 | 22 | 45 | 0.0 | 0.0 | 0.00 | 0.13 | 0.13 | 79 | 1009.8 |
| 20260506175806 | 22 | 17 | 3.2 | 3.2 | 0.00 | 0.13 | 0.13 | 79 | 1009.7 |
| 20260506175306 | 22 | 119 | 0.0 | 1.6 | 0.00 | 0.13 | 0.13 | 81 | 1009.6 |
| 20260506174801 | 21 | 106 | 3.2 | 3.2 | 0.00 | 0.13 | 0.13 | 81 | 1009.8 |
| 20260506174258 | 21 | 72 | 1.6 | 4.8 | 0.00 | 0.13 | 0.13 | 84 | 1009.6 |
| 20260506173755 | 21 | 93 | 3.2 | 4.8 | 0.00 | 0.13 | 0.13 | 84 | 1009.8 |
| 20260506173252 | 21 | 44 | 6.4 | 12.9 | 0.00 | 0.13 | 0.13 | 85 | 1009.8 |
| 20260506172748 | 20 | 115 | 0.0 | 3.2 | 0.00 | 0.13 | 0.13 | 88 | 1009.8 |
| 20260506172245 | 20 | 86 | 3.2 | 3.2 | 0.00 | 0.13 | 0.13 | 90 | 1010.0 |
| 20260506171743 | 19 | 79 | 3.2 | 4.8 | 0.00 | 0.13 | 0.13 | 92 | 1010.0 |
| 20260506171240 | 18 | 100 | 3.2 | 8.0 | 0.00 | 0.13 | 0.13 | 93 | 1010.1 |
| 20260506170738 | 18 | 91 | 3.2 | 4.8 | 0.00 | 0.13 | 0.13 | 95 | 1009.8 |
| 20260506170234 | 17 | 94 | 14.5 | 17.7 | 0.00 | 0.13 | 0.13 | 95 | 1009.9 |
| 20260506165732 | 17 | 74 | 8.0 | 11.3 | 0.00 | 0.13 | 0.13 | 96 | 1010.2 |
| 20260506165229 | 17 | 69 | 6.4 | 9.7 | 0.00 | 0.13 | 0.13 | 96 | 1010.1 |
| 20260506164726 | 17 | 84 | 1.6 | 3.2 | 0.00 | 0.13 | 0.13 | 96 | 1010.6 |
| 20260506164223 | 17 | 336 | 8.0 | 11.3 | 0.00 | 0.13 | 0.13 | 96 | 1010.5 |
| 20260506163720 | 17 | 120 | 4.8 | 8.0 | 0.00 | 0.13 | 0.13 | 96 | 1010.5 |
| 20260506163215 | 17 | 69 | 4.8 | 8.0 | 0.00 | 0.13 | 0.13 | 96 | 1010.8 |
| 20260506162711 | 17 | 84 | 0.0 | 0.0 | 0.00 | 0.13 | 0.13 | 95 | 1011.3 |
| 20260506162209 | 17 | 91 | 0.0 | 0.0 | 0.00 | 0.13 | 0.13 | 95 | 1011.3 |
| 20260506161706 | 17 | 308 | 11.3 | 16.1 | 0.18 | 0.13 | 0.13 | 95 | 1011.3 |
| 20260506161203 | 17 | 104 | 3.2 | 4.8 | 0.36 | 0.13 | 0.13 | 94 | 1011.2 |
| 20260506160700 | 18 | 63 | 8.0 | 14.5 | 0.48 | 0.10 | 0.10 | 94 | 1011.2 |
| 20260506160157 | 18 | 94 | 8.0 | 12.9 | 0.43 | 0.08 | 0.08 | 94 | 1011.1 |
| 20260506155655 | 18 | 348 | 9.7 | 14.5 | 0.13 | 0.03 | 0.03 | 93 | 1011.2 |
| 20260506155152 | 19 | 2 | 8.0 | 12.9 | 0.00 | 0.00 | 0.00 | 92 | 1011.0 |
| 20260506153254 | 21 | 357 | 8.0 | 16.1 | 0.00 | 0.00 | 0.00 | 89 | 1010.2 |
| 20260506152751 | 25 | 3 | 12.9 | 14.5 | 0.00 | 0.00 | 0.00 | 89 | 1010.1 |
| 20260506152248 | 25 | 107 | 4.8 | 4.8 | 0.00 | 0.00 | 0.00 | 91 | 1009.7 |
| 20260506151747 | 25 | 107 | 3.2 | 4.8 | 0.00 | 0.00 | 0.00 | 91 | 1009.3 |
| 20260506151243 | 25 | 128 | 0.0 | 0.0 | 0.00 | 0.00 | 0.00 | 91 | 1009.5 |
| 20260506150740 | 25 | 134 | 0.0 | 0.0 | 0.00 | 0.00 | 0.00 | 91 | 1009.3 |
| 20260506150237 | 25 | 158 | 0.0 | 0.0 | 0.00 | 0.00 | 0.00 | 90 | 1009.3 |
| 20260506145734 | 25 | 92 | 0.0 | 0.0 | 0.00 | 0.00 | 0.00 | 90 | 1009.1 |
| 20260506145230 | 25 | 129 | 0.0 | 0.0 | 0.00 | 0.00 | 0.00 | 90 | 1008.9 |
| 20260506144728 | 25 | 117 | 0.0 | 3.2 | 0.00 | 0.00 | 0.00 | 90 | 1008.6 |
| 20260506144225 | 25 | 134 | 0.0 | 0.0 | 0.00 | 0.00 | 0.00 | 90 | 1008.6 |
| 20260506143722 | 25 | 109 | 1.6 | 4.8 | 0.00 | 0.00 | 0.00 | 90 | 1008.6 |
| 20260506143220 | 25 | 123 | 0.0 | 0.0 | 0.00 | 0.00 | 0.00 | 90 | 1008.1 |
| 20260506142718 | 25 | 156 | 3.2 | 3.2 | 0.00 | 0.00 | 0.00 | 90 | 1008.5 |
| 20260506142216 | 25 | 159 | 0.0 | 1.6 | 0.00 | 0.00 | 0.00 | 90 | 1008.1 |
| 20260506141714 | 25 | 105 | 0.0 | 0.0 | 0.00 | 0.00 | 0.00 | 91 | 1007.8 |
| 20260506141212 | 25 | 115 | 0.0 | 0.0 | 0.00 | 0.00 | 0.00 | 92 | 1008.2 |
| 20260506140709 | 25 | 134 | 0.0 | 0.0 | 0.00 | 0.00 | 0.00 | 92 | 1008.6 |
| 20260506140206 | 25 | 147 | 0.0 | 0.0 | 0.00 | 0.00 | 0.00 | 92 | 1008.6 |
| 20260506135703 | 25 | 137 | 0.0 | 0.0 | 0.00 | 0.00 | 0.00 | 93 | 1008.6 |
| 20260506135159 | 25 | 147 | 0.0 | 0.0 | 0.00 | 0.00 | 0.00 | 93 | 1008.2 |
| 20260506134656 | 24 | 152 | 0.0 | 0.0 | 0.00 | 0.00 | 0.00 | 93 | 1007.7 |
| 20260506134152 | 24 | 133 | 0.0 | 0.0 | 0.00 | 0.00 | 0.00 | 93 | 1007.6 |
| 20260506133649 | 24 | 114 | 0.0 | 0.0 | 0.00 | 0.00 | 0.00 | 93 | 1008.0 |
| 20260506133146 | 24 | 83 | 1.6 | 3.2 | 0.00 | 0.00 | 0.00 | 93 | 1008.0 |
| 20260506132643 | 24 | 131 | 0.0 | 1.6 | 0.00 | 0.00 | 0.00 | 94 | 1007.7 |
| 20260506132140 | 24 | 141 | 0.0 | 0.0 | 0.00 | 0.00 | 0.00 | 94 | 1007.8 |
| 20260506131638 | 24 | 144 | 0.0 | 0.0 | 0.00 | 0.00 | 0.00 | 94 | 1007.7 |
| 20260506131133 | 23 | 172 | 0.0 | 1.6 | 0.00 | 0.00 | 0.00 | 94 | 1007.7 |
| 20260506130630 | 23 | 153 | 0.0 | 0.0 | 0.00 | 0.00 | 0.00 | 94 | 1007.5 |
| 20260506130128 | 23 | 122 | 0.0 | 0.0 | 0.00 | 0.00 | 0.00 | 94 | 1007.5 |
| 20260506125626 | 23 | 164 | 0.0 | 0.0 | 0.00 | 0.00 | 0.00 | 94 | 1007.4 |
| 20260506125123 | 23 | 135 | 0.0 | 0.0 | 0.00 | 0.00 | 0.00 | 94 | 1007.4 |
| 20260506124621 | 23 | 203 | 0.0 | 1.6 | 0.00 | 0.00 | 0.00 | 94 | 1007.4 |
| 20260506124119 | 23 | 132 | 0.0 | 0.0 | 0.00 | 0.00 | 0.00 | 94 | 1007.2 |
| 20260506123616 | 23 | 132 | 0.0 | 0.0 | 0.00 | 0.00 | 0.00 | 94 | 1007.3 |
| 20260506123115 | 23 | 128 | 0.0 | 0.0 | 0.00 | 0.00 | 0.00 | 94 | 1007.4 |
| 20260506122611 | 23 | 133 | 0.0 | 0.0 | 0.00 | 0.00 | 0.00 | 94 | 1007.4 |
| 20260506122109 | 23 | 133 | 0.0 | 0.0 | 0.00 | 0.00 | 0.00 | 94 | 1007.6 |
| 20260506121606 | 23 | 142 | 0.0 | 0.0 | 0.00 | 0.00 | 0.00 | 94 | 1007.4 |
| 20260506121102 | 23 | 132 | 0.0 | 0.0 | 0.00 | 0.00 | 0.00 | 94 | 1007.4 |
| 20260506120601 | 23 | 146 | 0.0 | 0.0 | 0.00 | 0.00 | 0.00 | 94 | 1007.4 |
| 20260506120057 | 23 | 107 | 0.0 | 0.0 | 0.00 | 0.00 | 0.00 | 93 | 1007.3 |
| 20260506115556 | 23 | 139 | 0.0 | 0.0 | 0.00 | 0.00 | 0.00 | 93 | 1007.3 |
| 20260506115054 | 23 | 138 | 0.0 | 0.0 | 0.00 | 0.00 | 0.00 | 93 | 1007.1 |
| 20260506114551 | 23 | 145 | 0.0 | 0.0 | 0.00 | 0.00 | 0.00 | 93 | 1007.4 |
| 20260506114049 | 23 | 151 | 0.0 | 0.0 | 0.00 | 0.00 | 0.00 | 93 | 1007.4 |
| 20260506113547 | 23 | 141 | 0.0 | 0.0 | 0.00 | 0.00 | 0.00 | 93 | 1007.5 |
| 20260506113044 | 23 | 191 | 1.6 | 3.2 | 0.00 | 0.00 | 0.00 | 93 | 1007.5 |
| 20260506112540 | 23 | 147 | 0.0 | 0.0 | 0.00 | 0.00 | 0.00 | 93 | 1007.2 |
| 20260506112038 | 23 | 149 | 0.0 | 0.0 | 0.00 | 0.00 | 0.00 | 93 | 1007.6 |
| 20260506111535 | 23 | 195 | 1.6 | 4.8 | 0.00 | 0.00 | 0.00 | 93 | 1007.5 |
| 20260506111032 | 23 | 176 | 3.2 | 4.8 | 0.00 | 0.00 | 0.00 | 93 | 1007.2 |
| 20260506110530 | 23 | 188 | 4.8 | 4.8 | 0.00 | 0.00 | 0.00 | 93 | 1007.3 |
| 20260506110027 | 23 | 156 | 0.0 | 0.0 | 0.00 | 0.00 | 0.00 | 93 | 1007.3 |
| 20260506105523 | 23 | 156 | 0.0 | 0.0 | 0.00 | 0.00 | 0.00 | 93 | 1007.1 |
| 20260506105021 | 23 | 161 | 0.0 | 1.6 | 0.00 | 0.00 | 0.00 | 93 | 1007.2 |
| 20260506104519 | 23 | 163 | 0.0 | 0.0 | 0.00 | 0.00 | 0.00 | 93 | 1007.3 |
| 20260506104016 | 23 | 142 | 0.0 | 0.0 | 0.00 | 0.00 | 0.00 | 93 | 1007.2 |
| 20260506103513 | 23 | 183 | 4.8 | 9.7 | 0.00 | 0.00 | 0.00 | 93 | 1007.1 |
| 20260506103010 | 23 | 170 | 0.0 | 0.0 | 0.00 | 0.00 | 0.00 | 93 | 1006.8 |
| 20260506102508 | 23 | 137 | 0.0 | 0.0 | 0.00 | 0.00 | 0.00 | 93 | 1006.9 |
| 20260506102005 | 23 | 140 | 0.0 | 0.0 | 0.00 | 0.00 | 0.00 | 93 | 1007.0 |
| 20260506101502 | 23 | 127 | 0.0 | 1.6 | 0.00 | 0.00 | 0.00 | 93 | 1006.9 |
| 20260506100959 | 23 | 190 | 4.8 | 11.3 | 0.00 | 0.00 | 0.00 | 93 | 1006.8 |
| 20260506100457 | 23 | 181 | 1.6 | 1.6 | 0.00 | 0.00 | 0.00 | 93 | 1006.8 |
| 20260506095955 | 23 | 175 | 4.8 | 4.8 | 0.00 | 0.00 | 0.00 | 94 | 1006.6 |
| 20260506095454 | 23 | 191 | 4.8 | 4.8 | 0.00 | 0.00 | 0.00 | 94 | 1006.7 |
| 20260506094949 | 23 | 155 | 0.0 | 0.0 | 0.00 | 0.00 | 0.00 | 94 | 1006.7 |
| 20260506094448 | 23 | 157 | 1.6 | 3.2 | 0.00 | 0.00 | 0.00 | 94 | 1006.6 |
| 20260506093945 | 23 | 189 | 8.0 | 9.7 | 0.00 | 0.00 | 0.00 | 94 | 1006.4 |
| 20260506093443 | 23 | 172 | 1.6 | 3.2 | 0.00 | 0.00 | 0.00 | 94 | 1006.3 |
| 20260506092940 | 23 | 177 | 4.8 | 8.0 | 0.00 | 0.00 | 0.00 | 94 | 1006.4 |
| 20260506092438 | 23 | 144 | 1.6 | 3.2 | 0.00 | 0.00 | 0.00 | 94 | 1006.3 |
| 20260506091934 | 23 | 191 | 4.8 | 8.0 | 0.00 | 0.00 | 0.00 | 94 | 1006.3 |
| 20260506091433 | 23 | 168 | 9.7 | 11.3 | 0.00 | 0.00 | 0.00 | 94 | 1006.2 |
| 20260506090930 | 23 | 154 | 0.0 | 0.0 | 0.00 | 0.00 | 0.00 | 94 | 1006.0 |
| 20260506090427 | 23 | 186 | 4.8 | 8.0 | 0.00 | 0.00 | 0.00 | 94 | 1005.9 |
| 20260506085924 | 23 | 186 | 6.4 | 11.3 | 0.00 | 0.00 | 0.00 | 94 | 1006.0 |
| 20260506085420 | 23 | 142 | 8.0 | 11.3 | 0.00 | 0.00 | 0.00 | 94 | 1006.0 |
| 20260506084917 | 23 | 182 | 16.1 | 17.7 | 0.00 | 0.00 | 0.00 | 94 | 1006.1 |
| 20260506084414 | 23 | 189 | 4.8 | 12.9 | 0.00 | 0.00 | 0.00 | 94 | 1006.2 |
| 20260506083910 | 23 | 155 | 8.0 | 9.7 | 0.00 | 0.00 | 0.00 | 93 | 1005.9 |
| 20260506083408 | 23 | 196 | 11.3 | 14.5 | 0.00 | 0.00 | 0.00 | 93 | 1006.1 |
| 20260506082905 | 23 | 201 | 11.3 | 14.5 | 0.00 | 0.00 | 0.00 | 93 | 1006.0 |
| 20260506082401 | 23 | 192 | 6.4 | 11.3 | 0.00 | 0.00 | 0.00 | 93 | 1006.1 |
| 20260506081857 | 23 | 180 | 9.7 | 11.3 | 0.00 | 0.00 | 0.00 | 93 | 1006.0 |
| 20260506081355 | 23 | 177 | 4.8 | 8.0 | 0.00 | 0.00 | 0.00 | 93 | 1006.1 |
| 20260506080853 | 23 | 189 | 14.5 | 17.7 | 0.00 | 0.00 | 0.00 | 93 | 1006.2 |
| 20260506080349 | 23 | 163 | 9.7 | 12.9 | 0.00 | 0.00 | 0.00 | 93 | 1006.1 |
| 20260506073333 | 23 | 168 | 3.2 | 8.0 | 0.00 | 0.00 | 0.00 | 93 | 1006.1 |
| 20260506072824 | 23 | 183 | 12.9 | 16.1 | 0.00 | 0.00 | 0.00 | 93 | 1006.4 |
| 20260506072322 | 23 | 195 | 4.8 | 8.0 | 0.00 | 0.00 | 0.00 | 93 | 1006.7 |
| 20260506071820 | 23 | 174 | 11.3 | 16.1 | 0.00 | 0.00 | 0.00 | 93 | 1006.6 |
| 20260506071318 | 23 | 195 | 1.6 | 12.9 | 0.00 | 0.00 | 0.00 | 93 | 1006.5 |
| 20260506070814 | 23 | 196 | 8.0 | 11.3 | 0.00 | 0.00 | 0.00 | 93 | 1006.5 |
| 20260506070311 | 23 | 165 | 6.4 | 9.7 | 0.00 | 0.00 | 0.00 | 93 | 1006.5 |
| 20260506062248 | 24 | 170 | 8.0 | 11.3 | 0.00 | 0.00 | 0.00 | 92 | 1006.7 |
| 20260506061744 | 24 | 168 | 12.9 | 16.1 | 0.00 | 0.00 | 0.00 | 92 | 1006.6 |
| 20260506061241 | 24 | 143 | 12.9 | 17.7 | 0.00 | 0.00 | 0.00 | 92 | 1006.6 |
| 20260506060740 | 24 | 175 | 9.7 | 16.1 | 0.00 | 0.00 | 0.00 | 93 | 1006.8 |
| 20260506060237 | 24 | 192 | 9.7 | 11.3 | 0.00 | 0.00 | 0.00 | 93 | 1006.5 |
| 20260506051209 | 24 | 176 | 11.3 | 16.1 | 0.00 | 0.00 | 0.00 | 92 | 1006.8 |
| 20260506050707 | 24 | 198 | 11.3 | 14.5 | 0.00 | 0.00 | 0.00 | 92 | 1006.9 |
| 20260506050204 | 24 | 135 | 0.0 | 1.6 | 0.00 | 0.00 | 0.00 | 92 | 1006.9 |
| 20260506044655 | 24 | 173 | 6.4 | 9.7 | 0.00 | 0.00 | 0.00 | 91 | 1007.1 |
| 20260506044151 | 25 | 170 | 3.2 | 4.8 | 0.00 | 0.00 | 0.00 | 91 | 1007.1 |
| 20260506043649 | 25 | 117 | 4.8 | 4.8 | 0.00 | 0.00 | 0.00 | 91 | 1007.0 |
| 20260506043147 | 25 | 151 | 11.3 | 17.7 | 0.00 | 0.00 | 0.00 | 91 | 1006.8 |
| 20260506042646 | 25 | 187 | 3.2 | 4.8 | 0.00 | 0.00 | 0.00 | 91 | 1006.9 |
| 20260506042143 | 25 | 210 | 6.4 | 11.3 | 0.00 | 0.00 | 0.00 | 90 | 1006.9 |
| 20260506041642 | 25 | 151 | 4.8 | 8.0 | 0.00 | 0.00 | 0.00 | 90 | 1006.9 |
| 20260506041138 | 25 | 161 | 4.8 | 8.0 | 0.00 | 0.00 | 0.00 | 90 | 1006.6 |
| 20260506040635 | 25 | 208 | 4.8 | 8.0 | 0.00 | 0.00 | 0.00 | 90 | 1006.7 |
| 20260506040132 | 25 | 180 | 9.7 | 12.9 | 0.00 | 0.00 | 0.00 | 90 | 1006.6 |
| 20260506035629 | 25 | 163 | 9.7 | 11.3 | 0.00 | 0.00 | 0.00 | 90 | 1006.6 |
| 20260506035126 | 25 | 169 | 8.0 | 11.3 | 0.00 | 0.00 | 0.00 | 89 | 1006.3 |
| 20260506034623 | 25 | 181 | 1.6 | 4.8 | 0.00 | 0.00 | 0.00 | 89 | 1006.5 |
| 20260506034120 | 25 | 179 | 6.4 | 12.9 | 0.00 | 0.00 | 0.00 | 89 | 1006.5 |
| 20260506033617 | 25 | 187 | 3.2 | 3.2 | 0.00 | 0.00 | 0.00 | 89 | 1006.5 |
| 20260506033114 | 25 | 183 | 11.3 | 16.1 | 0.00 | 0.00 | 0.00 | 89 | 1006.4 |
| 20260506032612 | 25 | 147 | 1.6 | 3.2 | 0.00 | 0.00 | 0.00 | 88 | 1006.2 |
| 20260506032108 | 25 | 159 | 0.0 | 0.0 | 0.00 | 0.00 | 0.00 | 88 | 1006.5 |
| 20260506031605 | 25 | 168 | 6.4 | 8.0 | 0.00 | 0.00 | 0.00 | 88 | 1006.2 |
| 20260506031102 | 25 | 140 | 4.8 | 4.8 | 0.00 | 0.00 | 0.00 | 88 | 1006.1 |
| 20260506030601 | 25 | 165 | 0.0 | 0.0 | 0.00 | 0.00 | 0.00 | 88 | 1006.0 |
| 20260506030057 | 25 | 191 | 8.0 | 11.3 | 0.00 | 0.00 | 0.00 | 88 | 1006.1 |
| 20260506025554 | 25 | 150 | 0.0 | 0.0 | 0.00 | 0.00 | 0.00 | 88 | 1006.0 |
| 20260506025050 | 25 | 188 | 9.7 | 12.9 | 0.00 | 0.00 | 0.00 | 88 | 1005.7 |
| 20260506024548 | 25 | 115 | 1.6 | 3.2 | 0.00 | 0.00 | 0.00 | 87 | 1005.8 |
| 20260506024044 | 25 | 168 | 1.6 | 8.0 | 0.00 | 0.00 | 0.00 | 87 | 1005.7 |
| 20260506023540 | 25 | 182 | 6.4 | 8.0 | 0.00 | 0.00 | 0.00 | 86 | 1005.5 |
| 20260506023038 | 26 | 165 | 4.8 | 4.8 | 0.00 | 0.00 | 0.00 | 86 | 1005.3 |
| 20260506022535 | 26 | 157 | 1.6 | 3.2 | 0.00 | 0.00 | 0.00 | 85 | 1005.2 |
| 20260506022032 | 26 | 205 | 3.2 | 4.8 | 0.00 | 0.00 | 0.00 | 84 | 1005.1 |
| 20260506021530 | 26 | 120 | 0.0 | 0.0 | 0.00 | 0.00 | 0.00 | 84 | 1004.8 |
| 20260506021027 | 26 | 141 | 1.6 | 3.2 | 0.00 | 0.00 | 0.00 | 83 | 1004.7 |
| 20260506020525 | 26 | 184 | 1.6 | 4.8 | 0.00 | 0.00 | 0.00 | 83 | 1004.8 |
| 20260506020022 | 26 | 117 | 4.8 | 9.7 | 0.00 | 0.00 | 0.00 | 82 | 1004.7 |
| 20260506015519 | 26 | 130 | 1.6 | 4.8 | 0.00 | 0.00 | 0.00 | 82 | 1004.8 |
| 20260506015016 | 26 | 157 | 1.6 | 1.6 | 0.00 | 0.00 | 0.00 | 82 | 1004.8 |
| 20260506014514 | 26 | 177 | 1.6 | 3.2 | 0.00 | 0.00 | 0.00 | 82 | 1004.6 |
| 20260506014009 | 26 | 172 | 1.6 | 4.8 | 0.00 | 0.00 | 0.00 | 81 | 1004.5 |
| 20260506013507 | 26 | 168 | 0.0 | 0.0 | 0.00 | 0.00 | 0.00 | 81 | 1004.8 |
| 20260506013004 | 27 | 164 | 0.0 | 1.6 | 0.00 | 0.00 | 0.00 | 81 | 1004.6 |
| 20260506012500 | 27 | 172 | 3.2 | 9.7 | 0.00 | 0.00 | 0.00 | 81 | 1004.5 |
| 20260506011957 | 27 | 171 | 3.2 | 4.8 | 0.00 | 0.00 | 0.00 | 80 | 1004.6 |
| 20260506011454 | 27 | 142 | 0.0 | 0.0 | 0.00 | 0.00 | 0.00 | 79 | 1004.6 |
| 20260506010951 | 27 | 149 | 0.0 | 0.0 | 0.00 | 0.00 | 0.00 | 79 | 1004.6 |
| 20260506010450 | 27 | 130 | 0.0 | 1.6 | 0.00 | 0.00 | 0.00 | 78 | 1004.7 |
| 20260506005945 | 27 | 151 | 3.2 | 8.0 | 0.00 | 0.00 | 0.00 | 78 | 1004.6 |
| 20260506005443 | 27 | 152 | 0.0 | 0.0 | 0.00 | 0.00 | 0.00 | 78 | 1004.6 |
| 20260506004938 | 27 | 157 | 0.0 | 1.6 | 0.00 | 0.00 | 0.00 | 77 | 1004.7 |
| 20260506004437 | 27 | 157 | 1.6 | 3.2 | 0.00 | 0.00 | 0.00 | 77 | 1004.6 |
| 20260506003932 | 27 | 169 | 3.2 | 4.8 | 0.00 | 0.00 | 0.00 | 77 | 1004.7 |
| 20260506003429 | 27 | 133 | 0.0 | 1.6 | 0.00 | 0.00 | 0.00 | 77 | 1004.6 |
| 20260506002926 | 27 | 186 | 6.4 | 8.0 | 0.00 | 0.00 | 0.00 | 77 | 1004.5 |
| 20260506002422 | 27 | 133 | 0.0 | 0.0 | 0.00 | 0.00 | 0.00 | 77 | 1004.6 |
| 20260506001917 | 27 | 160 | 4.8 | 8.0 | 0.00 | 0.00 | 0.00 | 77 | 1004.4 |
| 20260506001415 | 27 | 150 | 6.4 | 8.0 | 0.00 | 0.00 | 0.00 | 77 | 1004.6 |
| 20260506000912 | 28 | 133 | 6.4 | 8.0 | 0.00 | 0.00 | 0.00 | 77 | 1004.4 |
| 20260506000409 | 28 | 182 | 1.6 | 3.2 | 0.00 | 0.00 | 0.00 | 76 | 1004.3 |
| 20260505235906 | 28 | 176 | 4.8 | 4.8 | 0.00 | 0.00 | 0.00 | 76 | 1004.5 |
| 20260505235404 | 28 | 161 | 4.8 | 9.7 | 0.00 | 0.00 | 0.00 | 76 | 1004.4 |
| 20260505234900 | 28 | 130 | 1.6 | 3.2 | 0.00 | 0.00 | 0.00 | 76 | 1004.5 |
| 20260505234358 | 28 | 160 | 8.0 | 11.3 | 0.00 | 0.00 | 0.00 | 76 | 1004.4 |
| 20260505233854 | 28 | 177 | 6.4 | 8.0 | 0.00 | 0.00 | 0.00 | 75 | 1004.2 |
| 20260505233353 | 28 | 177 | 8.0 | 9.7 | 0.00 | 0.00 | 0.00 | 74 | 1004.3 |
| 20260505232850 | 28 | 167 | 1.6 | 3.2 | 0.00 | 0.00 | 0.00 | 74 | 1004.2 |
| 20260505232348 | 28 | 171 | 8.0 | 9.7 | 0.00 | 0.00 | 0.00 | 74 | 1004.3 |
| 20260505231844 | 28 | 189 | 1.6 | 4.8 | 0.00 | 0.00 | 0.00 | 74 | 1004.2 |
| 20260505231341 | 28 | 201 | 9.7 | 16.1 | 0.00 | 0.00 | 0.00 | 74 | 1004.3 |
| 20260505230840 | 28 | 170 | 8.0 | 9.7 | 0.00 | 0.00 | 0.00 | 74 | 1004.4 |
| 20260505230337 | 28 | 174 | 11.3 | 14.5 | 0.00 | 0.00 | 0.00 | 75 | 1004.0 |
| 20260505225833 | 28 | 199 | 4.8 | 11.3 | 0.00 | 0.00 | 0.00 | 74 | 1004.0 |
| 20260505225330 | 28 | 190 | 8.0 | 9.7 | 0.00 | 0.00 | 0.00 | 74 | 1004.1 |
| 20260505224825 | 28 | 164 | 8.0 | 9.7 | 0.00 | 0.00 | 0.00 | 74 | 1004.3 |
| 20260505224324 | 28 | 217 | 9.7 | 11.3 | 0.00 | 0.00 | 0.00 | 73 | 1004.2 |
| 20260505223820 | 28 | 153 | 6.4 | 9.7 | 0.00 | 0.00 | 0.00 | 73 | 1004.2 |
| 20260505223318 | 28 | 181 | 16.1 | 22.5 | 0.00 | 0.00 | 0.00 | 73 | 1003.9 |
| 20260505222813 | 28 | 178 | 6.4 | 9.7 | 0.00 | 0.00 | 0.00 | 73 | 1004.1 |
| 20260505222309 | 28 | 187 | 11.3 | 16.1 | 0.00 | 0.00 | 0.00 | 71 | 1004.2 |
| 20260505221807 | 28 | 176 | 8.0 | 9.7 | 0.00 | 0.00 | 0.00 | 72 | 1004.3 |
| 20260505221303 | 28 | 119 | 0.0 | 1.6 | 0.00 | 0.00 | 0.00 | 72 | 1004.1 |
| 20260505220800 | 28 | 199 | 8.0 | 9.7 | 0.00 | 0.00 | 0.00 | 72 | 1004.2 |
| 20260505220257 | 28 | 181 | 16.1 | 17.7 | 0.00 | 0.00 | 0.00 | 72 | 1004.3 |
| 20260505215755 | 28 | 164 | 19.3 | 22.5 | 0.00 | 0.00 | 0.00 | 72 | 1004.1 |
| 20260505215253 | 29 | 199 | 9.7 | 12.9 | 0.00 | 0.00 | 0.00 | 72 | 1004.5 |
| 20260505214750 | 28 | 124 | 3.2 | 9.7 | 0.00 | 0.00 | 0.00 | 74 | 1004.6 |
| 20260505214248 | 28 | 188 | 11.3 | 12.9 | 0.00 | 0.00 | 0.00 | 73 | 1004.8 |
| 20260505213745 | 29 | 172 | 11.3 | 16.1 | 0.00 | 0.00 | 0.00 | 71 | 1004.7 |
| 20260505213242 | 28 | 206 | 11.3 | 12.9 | 0.00 | 0.00 | 0.00 | 71 | 1004.8 |
| 20260505212738 | 28 | 172 | 9.7 | 11.3 | 0.00 | 0.00 | 0.00 | 72 | 1004.8 |
| 20260505212236 | 28 | 180 | 11.3 | 12.9 | 0.00 | 0.00 | 0.00 | 73 | 1005.0 |
| 20260505211732 | 28 | 168 | 8.0 | 9.7 | 0.00 | 0.00 | 0.00 | 72 | 1004.8 |
| 20260505211230 | 28 | 177 | 17.7 | 20.9 | 0.00 | 0.00 | 0.00 | 71 | 1005.1 |
| 20260505210726 | 28 | 187 | 6.4 | 9.7 | 0.00 | 0.00 | 0.00 | 73 | 1004.8 |
| 20260505210223 | 27 | 222 | 16.1 | 20.9 | 0.00 | 0.00 | 0.00 | 74 | 1004.9 |
| 20260505205720 | 28 | 200 | 9.7 | 14.5 | 0.00 | 0.00 | 0.00 | 74 | 1004.9 |
| 20260505205218 | 28 | 179 | 4.8 | 4.8 | 0.00 | 0.00 | 0.00 | 74 | 1004.9 |
| 20260505204714 | 27 | 186 | 8.0 | 9.7 | 0.00 | 0.00 | 0.00 | 75 | 1005.1 |
| 20260505204213 | 27 | 174 | 9.7 | 12.9 | 0.00 | 0.00 | 0.00 | 77 | 1005.4 |
| 20260505203710 | 27 | 194 | 8.0 | 22.5 | 0.00 | 0.00 | 0.00 | 76 | 1005.4 |
| 20260505203206 | 27 | 185 | 9.7 | 14.5 | 0.00 | 0.00 | 0.00 | 76 | 1005.6 |
| 20260505202702 | 27 | 199 | 9.7 | 11.3 | 0.00 | 0.00 | 0.00 | 76 | 1005.6 |
| 20260505202158 | 27 | 168 | 4.8 | 8.0 | 0.00 | 0.00 | 0.00 | 76 | 1005.6 |
| 20260505201655 | 27 | 197 | 14.5 | 20.9 | 0.00 | 0.00 | 0.00 | 76 | 1005.6 |
| 20260505201153 | 27 | 188 | 4.8 | 9.7 | 0.00 | 0.00 | 0.00 | 77 | 1005.7 |
| 20260505200651 | 27 | 204 | 14.5 | 16.1 | 0.00 | 0.00 | 0.00 | 77 | 1005.8 |
| 20260505200147 | 27 | 177 | 11.3 | 12.9 | 0.00 | 0.00 | 0.00 | 78 | 1005.8 |
| 20260505195643 | 27 | 200 | 3.2 | 4.8 | 0.00 | 0.00 | 0.00 | 77 | 1005.9 |
| 20260505195141 | 26 | 189 | 3.2 | 3.2 | 0.00 | 0.00 | 0.00 | 79 | 1006.2 |
| 20260505194638 | 26 | 173 | 6.4 | 11.3 | 0.00 | 0.00 | 0.00 | 79 | 1006.0 |
| 20260505194134 | 26 | 156 | 9.7 | 14.5 | 0.00 | 0.00 | 0.00 | 78 | 1006.2 |
| 20260505193630 | 26 | 210 | 8.0 | 9.7 | 0.00 | 0.00 | 0.00 | 78 | 1006.3 |
| 20260505193128 | 26 | 175 | 6.4 | 8.0 | 0.00 | 0.00 | 0.00 | 79 | 1006.2 |
| 20260505192626 | 26 | 204 | 11.3 | 12.9 | 0.00 | 0.00 | 0.00 | 79 | 1006.2 |
| 20260505192123 | 26 | 170 | 1.6 | 4.8 | 0.00 | 0.00 | 0.00 | 80 | 1006.3 |
| 20260505191622 | 26 | 189 | 11.3 | 12.9 | 0.00 | 0.00 | 0.00 | 79 | 1006.2 |
| 20260505191119 | 26 | 176 | 16.1 | 20.9 | 0.00 | 0.00 | 0.00 | 79 | 1006.4 |
| 20260505190615 | 26 | 200 | 9.7 | 12.9 | 0.00 | 0.00 | 0.00 | 79 | 1006.3 |
| 20260505190110 | 26 | 186 | 11.3 | 16.1 | 0.00 | 0.00 | 0.00 | 80 | 1006.4 |